Flag for U.S.A. Weather past 2 weeks in Leawood, Kansas, U.S.A.

Now
75 °F

Light rain. Mostly cloudy.


Feels Like: 76 °F
Forecast: 74 / 85 °F
Wind: 22 mph from North

Location: Johnson County Executive Airport

Current Time: Jul 29, 2015 at 4:53:44 AM

Latest Report: Jul 29, 2015 at 3:53 AM


Visibility: 10 mi

Pressure: 30.02 "Hg

Humidity: 76%

Dew point: 67 °F

Location of LeawoodLocation

Historic Weather in Leawood — Graph

°F

Leawood temperature yesterday

Maximum temperature yesterday: 93 °F (at 2:53 PM)
Minimum temperature yesterday: 77 °F (at 2:53 AM)
Average temperature yesterday: 84 °F

Past Weeks' High & Low Weather Summary

 TemperatureHumidityPressure
High96 °F (Jul 14, 2:53 PM)100% (Jul 20, 4:53 AM)30.02 "Hg (Jul 20, 4:53 AM)
Low63 °F (Jul 22, 4:53 AM)34% (Jul 14, 3:53 PM)29.72 "Hg (Jul 14, 4:53 AM)
Average80 °F77%29.86 "Hg
* Reported Jul 14 3:53 AM — Jul 29 3:53 AM, Leawood, Weather by CustomWeather, © 2015

Note: Actual official high and low records may vary slightly from our data, if they occured in-between our weather recording intervals... More about our weather records

Advertising

Leawood weather history for previous 24 hours

 ConditionsComfort  
Time TempWeatherWind HumidityBarometerVisibility
3:53 AM
Wed, Jul 29
75 °FLight rain. Mostly cloudy.22 mph76%30.02 "Hg10 mi
2:53 AM81 °FOvercast.13 mph77%29.97 "Hg10 mi
1:53 AM81 °FPassing clouds.6 mph74%29.93 "Hg10 mi
12:53 AM81 °FClear.6 mph74%29.92 "Hg10 mi
11:53 PM
Tue, Jul 28
80 °FClear.6 mph79%29.90 "Hg10 mi
10:53 PM80 °FClear.7 mph76%29.90 "Hg10 mi
9:53 PM82 °FClear.5 mph72%29.87 "Hg10 mi
8:53 PM85 °FSunny.9 mph63%29.83 "Hg10 mi
7:53 PM88 °FSunny.10 mph57%29.83 "Hg10 mi
6:53 PM91 °FSunny.10 mph50%29.83 "Hg10 mi
5:53 PM92 °FSunny.10 mph49%29.84 "Hg10 mi
4:53 PM93 °FSunny.13 mph50%29.83 "Hg10 mi
3:55 PM93 °FSunny.17 mph50%29.89 "Hg10 mi
2:53 PM93 °FSunny.15 mph49%29.85 "Hg10 mi
1:53 PM92 °FSunny.16 mph52%29.85 "Hg10 mi
12:53 PM90 °FSunny.16 mph57%29.87 "Hg10 mi
11:53 AM90 °FSunny.14 mph59%29.88 "Hg10 mi
10:53 AM87 °FSunny.12 mph63%29.88 "Hg10 mi
9:53 AM85 °FSunny.16 mph68%29.87 "Hg10 mi
8:53 AM83 °FSunny.9 mph72%29.87 "Hg10 mi
7:53 AM80 °FSunny.13 mph81%29.86 "Hg9 mi
6:53 AM77 °FClear.7 mph90%29.85 "Hg7 mi
5:53 AM77 °FClear.6 mph90%29.85 "Hg8 mi
4:53 AM77 °FClear.6 mph90%29.84 "Hg8 mi
Weather by CustomWeather, © 2015

See weather overviewHow to use our weather pages